Location: Misciano
(43.5000°N, 11.9500°E)
Time: 10:33:45
(UTC+00:00)

Cosmos 44 - Pass Details

Date: 13 August 2020
Orbit: 583 x 779 km, 65.1° (Epoch: 20 September)

Event Time Altitude Azimuth Distance (km) Brightness Sun altitude
Rises 20:59:01 0° 325° (NW) 3,057 8.1 -24.2°
Reaches altitude 10° 21:01:18 10° 325° (NW) 2,168 6.9 -24.4°
Maximum altitude 21:06:16 87° 239° (WSW) 735 3.3 -24.9°
Enters shadow 21:06:34 80° 166° (SSE) 746 3.2 -25.0°
